Weather History for Sigonella, Italy

Change the Weather History Date:

Friday, March 22, 2013

  Actual Average Record
Temperature  
Mean Temperature 57 °F -  
Max Temperature 70 °F 68 °F 77 °F (2001)
Min Temperature 44 °F 46 °F 35 °F (1999)
Degree Days  
Heating Degree Days 8    
Growing Degree Days 7 (Base 50)    
Moisture  
Dew Point 41 °F    
Average Humidity 62    
Maximum Humidity 100    
Minimum Humidity 20    
Precipitation  
Precipitation 0.00 in 0.04 in - ()
Sea Level Pressure  
Sea Level Pressure 29.94 in    
Wind  
Wind Speed 9 mph ()    
Max Wind Speed 17 mph    
Max Gust Speed -    
Visibility 6.9 miles    
Events      
Averages and records for this station are not official NWS values.
T = Trace of Precipitation, MM = Missing Value Source: Averaged Metar Reports

Daily Weather History Graph

Daily Weather History Graph

Search for Another Location

Airport:

Trip Planner

Search our weather history database for the weather conditions in past years. The results will help you decide how hot, cold, wet, or windy it might be!

Date:

Astronomy

Mar. 22, 2013 Rise Set
Actual Time 6:00 AM CET 6:13 PM CET
Civil Twilight 5:34 AM CET 6:40 PM CET
Nautical Twilight 5:04 AM CET 7:10 PM CET
Astronomical Twilight 4:33 AM CET 7:41 PM CET
Moon 1:29 PM CET (3/22) 2:44 AM CET (3/22)
Length of Visible Light 13h 05m
Length of Day
12h 13m
Waxing Gibbous, 75% of the Moon is Illuminated
Mar 22
Waxing Gibbous
Mar 27
Full
Apr 3
Last Quarter
Apr 10
New
Apr 18
First Quarter

Hourly Weather History & Observations

Time (CET) Temp. Windchill Dew Point Humidity Pressure Visibility Wind Dir Wind Speed Gust Speed Precip Events Conditions
12:55 AM 53.6 °F - 32.0 °F 44% 29.95 in - NW 17.3 mph - N/A   Clear
1:00 AM 54 °F - 31 °F 29% 29.96 in 6 mi NW 17.3 mph - -  
1:55 AM 53.6 °F - 30.2 °F 41% 29.95 in 6.2 mi NW 17.3 mph - N/A   Partly Cloudy
2:55 AM 50.0 °F - 37.4 °F 62% 29.95 in 6.2 mi WNW 13.8 mph - N/A   Partly Cloudy
3:55 AM 48.2 °F - 37.4 °F 66% 29.95 in - NNW 8.1 mph - N/A   Clear
4:00 AM 49 °F - 37 °F 54% 29.96 in 6 mi NNW 8.1 mph - -  
4:55 AM 50.0 °F - 39.2 °F 66% 29.95 in - NNW 10.4 mph - N/A   Clear
5:55 AM 46.4 °F 42.4 °F 41.0 °F 81% 29.95 in - WNW 8.1 mph - N/A   Clear
6:55 AM 48.2 °F - 39.2 °F 71% 29.95 in - WNW 9.2 mph - N/A   Clear
7:00 AM 48 °F - 38 °F 60% 29.97 in 6 mi WNW 9.2 mph - -  
7:55 AM 51.8 °F - 42.8 °F 71% 29.95 in - NW 3.5 mph - N/A   Clear
8:55 AM 55.4 °F - 39.2 °F 54% 29.95 in - WSW 4.6 mph - N/A   Clear
9:55 AM 62.6 °F - 37.4 °F 39% 29.95 in 6.2 mi West 6.9 mph - N/A   Partly Cloudy
10:00 AM 63 °F - 38 °F 28% 29.96 in 9 mi West 6.9 mph - -   Scattered Clouds
10:55 AM 64.4 °F - 37.4 °F 37% 29.95 in 6.2 mi West 8.1 mph - N/A   Partly Cloudy
11:55 AM 68.0 °F - 39.2 °F 35% 29.92 in 6.2 mi WSW 5.8 mph - N/A   Partly Cloudy
12:55 PM 68.0 °F - 35.6 °F 30% 29.92 in - SW 10.4 mph - N/A   Clear
1:00 PM 68 °F - 36 °F 20% 29.93 in 9 mi SW 10.4 mph - -   Clear
1:55 PM 64.4 °F - 41.0 °F 42% 29.89 in - ENE 16.1 mph - N/A   Clear
2:55 PM 62.6 °F - 44.6 °F 52% 29.89 in - East 16.1 mph - N/A   Clear
3:55 PM 60.8 °F - 42.8 °F 52% 29.89 in - East 11.5 mph - N/A   Clear
4:00 PM 61 °F - 42 °F 39% 29.90 in 6 mi East 11.5 mph - -   Clear
4:55 PM 59.0 °F - 46.4 °F 63% 29.89 in - East 10.4 mph - N/A   Clear
5:55 PM 55.4 °F - 48.2 °F 77% 29.92 in - East 8.1 mph - N/A   Clear
6:55 PM 53.6 °F - 50.0 °F 88% 29.92 in - East 4.6 mph - N/A   Clear
7:00 PM 54 °F - 50 °F 81% 29.93 in 6 mi East 4.6 mph - -   Clear
7:55 PM 51.8 °F - 51.8 °F 100% 29.92 in - ESE 3.5 mph - N/A   Clear
8:55 PM 50.0 °F - 50.0 °F 100% 29.95 in - NNW 2.3 mph - N/A   Clear
9:55 PM 46.4 °F - 46.4 °F 100% 29.95 in - West 1.2 mph - N/A   Clear
10:00 PM 46 °F - 46 °F 100% 29.96 in 11 mi West 1.2 mph - -   Clear
10:55 PM 44.6 °F 42.2 °F 44.6 °F 100% 29.95 in - West 4.6 mph - N/A   Clear
11:55 PM 44.6 °F 41.4 °F 44.6 °F 100% 29.95 in - West 5.8 mph - N/A   Clear